Location: Newark
(38.1089°N, 103.8675°W)
Time: 02:58:21
(UTC+00:00)

Envisat - Pass Details

Date: 15 December 2019
Orbit: 764 x 766 km, 98.1° (Epoch: 23 January)

Event Time Altitude Azimuth Distance (km) Brightness Sun altitude
Rises 01:05:43 0° 173° (S) 3,217 6.4 -17.0°
Reaches altitude 10° 01:08:02 10° 176° (S) 2,295 5.6 -17.4°
Maximum altitude 01:13:04 67° 258° (WSW) 832 3.4 -18.4°
Drops below altitude 10° 01:18:08 10° 342° (NNW) 2,310 5.5 -19.3°
Sets 01:20:28 0° 345° (NNW) 3,241 6.3 -19.8°
